Location: Newark
(13.8117°N, 3.6025°W)
Time: 12:39:38
(UTC+00:00)

Explorer 11/Cluster Stage 4 - Pass Details

Date: 01 September 2019
Orbit: 467 x 1260 km, 28.8° (Epoch: 15 September)

Event Time Altitude Azimuth Distance (km) Brightness Sun altitude
Rises 11:32:22 0° 302° (WNW) 3,938 10.0 78.3°
Reaches altitude 10° 11:35:10 10° 308° (NW) 3,063 9.6 78.9°
Maximum altitude 11:42:44 50° 22° (NNE) 1,544 8.9 80.4°
Drops below altitude 10° 11:50:40 10° 95° (E) 3,216 10.0 81.9°
Sets 11:53:40 0° 100° (E) 4,147 10.4 82.5°
